This is the latest recevied weather packets stored in our database for station/object SQ7IQO. If no packets are shown the sender has not sent any weather packets the latest 10 day(s).
| Time | Temp. | Humidity | Pressure | Rain* | Wind** | Luminosity | Snow |
|---|---|---|---|---|---|---|---|
| 1788019962 | 21.67° C | 67% | 1015.7 hPa | 0 mm | 0 m/s | - | - |
| 1788019902 | 21.11° C | 68% | 1015.7 hPa | 0 mm | 0.45 m/s, ° | - | - |
| 1788019842 | 20.56° C | 68% | 1015.7 hPa | 0 mm | 0 m/s | - | - |
| 1788019782 | 21.11° C | 68% | 1015.7 hPa | 0 mm | 0 m/s | - | - |
| 1788019722 | 21.11° C | 68% | 1015.7 hPa | 0 mm | 0 m/s | - | - |
| 1788019662 | 21.11° C | 68% | 1015.7 hPa | 0 mm | 0 m/s | - | - |
| 1788019602 | 21.11° C | 68% | 1015.7 hPa | 0 mm | 0 m/s | - | - |
| 1788019542 | 21.11° C | 67% | 1015.6 hPa | 0 mm | 0.45 m/s, ° | - | - |
| 1788019482 | 21.11° C | 67% | 1015.6 hPa | 0 mm | 0.89 m/s, ° | - | - |
| 1788019422 | 21.11° C | 67% | 1015.6 hPa | 0 mm | 0.45 m/s, ° | - | - |
| 1788019362 | 21.11° C | 67% | 1015.6 hPa | 0 mm | 0.89 m/s, ° | - | - |
| 1788019302 | 21.11° C | 67% | 1015.6 hPa | 0 mm | 0.45 m/s, ° | - | - |
| 1788019242 | 21.67° C | 66% | 1015.6 hPa | 0 mm | 0 m/s | - | - |
| 1788019182 | 21.67° C | 66% | 1015.6 hPa | 0 mm | 0 m/s | - | - |
| 1788019122 | 21.67° C | 65% | 1015.6 hPa | 0 mm | 0.89 m/s, ° | - | - |
| 1788019062 | 21.67° C | 65% | 1015.5 hPa | 0 mm | 0.45 m/s, ° | - | - |
| 1788019002 | 21.67° C | 64% | 1015.5 hPa | 0 mm | 0 m/s | - | - |
| 1788018942 | 22.22° C | 63% | 1015.5 hPa | 0 mm | 0 m/s | - | - |
| 1788018882 | 22.78° C | 62% | 1015.5 hPa | 0 mm | 0.45 m/s, ° | - | - |
| 1788018822 | 22.78° C | 62% | 1015.5 hPa | 0 mm | 0 m/s | - | - |
| 1788018762 | 22.78° C | 61% | 1015.5 hPa | 0 mm | 0.89 m/s, ° | - | - |
| 1788018702 | 22.78° C | 62% | 1015.5 hPa | 0 mm | 0.89 m/s, ° | - | - |
| 1788018642 | 22.22° C | 62% | 1015.5 hPa | 0 mm | 0.45 m/s, ° | - | - |
| 1788018582 | 22.22° C | 62% | 1015.5 hPa | 0 mm | 0.89 m/s, ° | - | - |
| 1788018522 | 22.22° C | 63% | 1015.5 hPa | 0 mm | 0.45 m/s, ° | - | - |
* Rain latest hour (hover to see other rain measurements)
** Current wind speed in m/s (hover to see current wind gust speed)